Twentynine Palms, CA

11:54 PM PST on December 08, 2019 (GMT -0800)
Twentynine Palms Expeditionary Air Field

Weather History for KNXP - November, 2019

Change the Weather History Date:

Sunday, November 17, 2019

  Actual Average Record
Temperature  
Mean Temperature 67 °F -  
Max Temperature 80 °F 66 °F 80 °F (2007)
Min Temperature 53 °F 44 °F 33 °F (2000)
Cooling Degree Days 2    
Growing Degree Days 17 (Base 50)    
Moisture  
Dew Point 18 °F    
Average Humidity 18    
Maximum Humidity 28    
Minimum Humidity 9    
Precipitation  
Precipitation 0.00 in - - ()
Sea Level Pressure  
Sea Level Pressure 30.06 in    
Wind  
Wind Speed 5 mph (NW)    
Max Wind Speed 13 mph    
Max Gust Speed -    
Visibility 10 miles    
Events      
Averages and records for this station are not official NWS values.
T = Trace of Precipitation, MM = Missing Value Source: NWS Daily Summary

Daily Weather History Graph

Daily Weather History Graph

Search for Another Location

Airport or City:

Astronomy

Nov. 17, 2019 Rise Set
Actual Time 6:19 AM PST 4:39 PM PST
Civil Twilight 5:52 AM PST 5:06 PM PST
Nautical Twilight 5:22 AM PST 5:36 PM PST
Astronomical Twilight 4:52 AM PST 6:06 PM PST
Moon 9:23 PM PST (11/17) 11:05 AM PST (11/17)
Length of Visible Light 11h 13m
Length of Day
10h 19m
Waning Gibbous, 72% of the Moon is Illuminated
Nov 17
Waning Gibbous
Nov 19
Last Quarter
Nov 26
New
Dec 3
First Quarter
Dec 11
Full

Hourly Weather History & Observations

Time (PST) Temp. Dew Point Humidity Pressure Visibility Wind Dir Wind Speed Gust Speed Precip Events Conditions
12:56 AM 57.0 °F 19.9 °F 24% 30.08 in 10.0 mi Calm Calm - N/A   Clear
1:56 AM 57.0 °F 19.9 °F 24% 30.09 in 10.0 mi Calm Calm - N/A   Clear
2:56 AM 57.0 °F 21.0 °F 25% 30.09 in 10.0 mi West 8.1 mph - N/A   Clear
3:56 AM 55.9 °F 21.0 °F 26% 30.09 in 10.0 mi NW 4.6 mph - N/A   Clear
4:56 AM 54.0 °F 21.0 °F 28% 30.10 in 10.0 mi NW 6.9 mph - N/A   Clear
5:56 AM 57.0 °F 21.0 °F 25% 30.12 in 10.0 mi NW 10.4 mph - N/A   Clear
6:56 AM 55.9 °F 21.0 °F 26% 30.14 in 9.0 mi West 6.9 mph - N/A   Clear
7:56 AM 64.0 °F 21.0 °F 19% 30.14 in 10.0 mi West 10.4 mph - N/A   Clear
8:56 AM 70.0 °F 19.9 °F 15% 30.14 in 10.0 mi WNW 9.2 mph - N/A   Clear
9:56 AM 75.0 °F 19.0 °F 12% 30.13 in 9.0 mi NW 4.6 mph - N/A   Clear
10:56 AM 75.0 °F 18.0 °F 12% 30.10 in 10.0 mi Calm Calm - N/A   Clear
11:56 AM 79.0 °F 17.1 °F 10% 30.06 in 10.0 mi North 5.8 mph - N/A   Clear
12:56 PM 79.0 °F 17.1 °F 10% 30.05 in 10.0 mi North 6.9 mph - N/A   Clear
1:56 PM 80.1 °F 16.0 °F 9% 30.03 in 10.0 mi West 4.6 mph - N/A   Clear
2:56 PM 79.0 °F 16.0 °F 9% 30.03 in 10.0 mi NNW 6.9 mph - N/A   Clear
3:56 PM 78.1 °F 15.1 °F 9% 30.04 in 8.0 mi NW 5.8 mph - N/A   Clear
4:56 PM 71.1 °F 16.0 °F 12% 30.05 in 6.0 mi NW 5.8 mph - N/A   Clear
5:56 PM 66.0 °F 16.0 °F 15% 29.40 in 10.0 mi WNW 9.2 mph - N/A   Clear
6:56 PM 66.0 °F 17.1 °F 15% 30.07 in 10.0 mi West 12.7 mph - N/A   Clear
7:56 PM 61.0 °F 16.0 °F 17% 30.08 in 10.0 mi SW 12.7 mph - N/A   Clear
8:56 PM 62.1 °F 16.0 °F 17% 30.08 in 10.0 mi Calm Calm - N/A   Clear
9:56 PM 57.0 °F 16.0 °F 20% 30.07 in 10.0 mi WNW 9.2 mph - N/A   Clear
10:56 PM 55.9 °F 16.0 °F 21% 30.08 in 10.0 mi WNW 8.1 mph - N/A   Clear
11:56 PM 53.1 °F 16.0 °F 23% 30.07 in 10.0 mi NNE 4.6 mph - N/A   Clear